| time (UTC) | temp F | wind direction | speed MPH | gust MPH | rain 1hr in | rain 24hr in | rain mn in | humidity % | barometer mb |
| 20260504205520 | 73 | 175 | 2.0 | 3.0 | 0.00 | 0.50 | 0.50 | 68 | 1023.4 |
| 20260504205041 | 72 | 169 | 2.0 | 4.0 | 0.00 | 0.50 | 0.50 | 71 | 1022.4 |
| 20260504204520 | 71 | 180 | 2.0 | 5.0 | 0.00 | 0.50 | 0.50 | 72 | 1022.4 |
| 20260504204041 | 70 | 169 | 2.0 | 4.0 | 0.00 | 0.50 | 0.50 | 74 | 1023.3 |
| 20260504203540 | 70 | 201 | 2.0 | 4.0 | 0.00 | 0.50 | 0.50 | 77 | 1027.4 |
| 20260504203025 | 69 | 203 | 3.0 | 6.0 | 0.00 | 0.50 | 0.50 | 82 | 1034.3 |
| 20260504202526 | 68 | 214 | 3.0 | 5.0 | 0.00 | 0.50 | 0.50 | 82 | 1034.7 |
| 20260504202044 | 68 | 216 | 2.0 | 4.0 | 0.00 | 0.50 | 0.50 | 83 | 1036.2 |
| 20260504201521 | 67 | 227 | 2.0 | 5.0 | 0.00 | 0.50 | 0.50 | 86 | 1038.5 |
| 20260504201022 | 66 | 274 | 2.0 | 4.0 | 0.00 | 0.50 | 0.50 | 87 | 1038.5 |
| 20260504200541 | 65 | 276 | 2.0 | 3.0 | 0.00 | 0.50 | 0.50 | 89 | 1037.5 |
| 20260504200022 | 65 | 309 | 2.0 | 4.0 | 0.00 | 0.50 | 0.50 | 92 | 1036.0 |
| 20260504195521 | 65 | 313 | 1.0 | 4.0 | 0.01 | 0.50 | 0.50 | 92 | 1035.2 |
| 20260504195041 | 65 | 314 | 1.0 | 5.0 | 0.03 | 0.50 | 0.50 | 91 | 1033.6 |
| 20260504194521 | 64 | 313 | 2.0 | 3.0 | 0.03 | 0.50 | 0.50 | 92 | 1033.4 |
| 20260504194022 | 63 | 319 | 2.0 | 3.0 | 0.11 | 0.50 | 0.50 | 93 | 1034.3 |
| 20260504193623 | 63 | 327 | 3.0 | 4.0 | 0.14 | 0.50 | 0.50 | 93 | 1034.5 |
| 20260504193022 | 62 | 331 | 3.0 | 4.0 | 0.19 | 0.50 | 0.50 | 92 | 1033.8 |
| 20260504192522 | 61 | 338 | 3.0 | 4.0 | 0.39 | 0.50 | 0.50 | 92 | 1033.9 |
| 20260504192022 | 61 | 10 | 3.0 | 4.0 | 0.48 | 0.50 | 0.50 | 92 | 1034.6 |
| 20260504191522 | 61 | 24 | 2.0 | 3.0 | 0.48 | 0.50 | 0.50 | 94 | 1035.7 |
| 20260504191023 | 61 | 226 | 3.0 | 4.0 | 0.48 | 0.50 | 0.50 | 94 | 1035.7 |
| 20260504190523 | 61 | 226 | 6.0 | 19.0 | 0.48 | 0.50 | 0.50 | 94 | 1035.5 |
| 20260504190023 | 61 | 226 | 5.0 | 15.0 | 0.48 | 0.50 | 0.50 | 94 | 1036.8 |
| 20260504185543 | 61 | 230 | 5.0 | 8.0 | 0.47 | 0.49 | 0.49 | 93 | 1039.4 |
| 20260504185020 | 61 | 219 | 3.0 | 6.0 | 0.46 | 0.48 | 0.48 | 93 | 1042.0 |
| 20260504184521 | 61 | 224 | 4.0 | 8.0 | 0.45 | 0.47 | 0.47 | 91 | 1044.7 |
| 20260504184043 | 61 | 219 | 3.0 | 9.0 | 0.38 | 0.39 | 0.39 | 91 | 1046.7 |
| 20260504183543 | 62 | 105 | 3.0 | 7.0 | 0.35 | 0.37 | 0.37 | 89 | 1047.9 |
| 20260504183023 | 63 | 205 | 2.0 | 8.0 | 0.29 | 0.31 | 0.31 | 87 | 1046.2 |
| 20260504182523 | 64 | 173 | 1.0 | 3.0 | 0.09 | 0.11 | 0.11 | 80 | 1035.9 |
| 20260504182023 | 64 | 210 | 1.0 | 2.0 | 0.01 | 0.02 | 0.02 | 76 | 1031.4 |
| 20260504181520 | 64 | 6 | 2.0 | 3.0 | 0.00 | 0.02 | 0.02 | 76 | 1030.7 |
| 20260504181020 | 64 | 4 | 2.0 | 3.0 | 0.00 | 0.02 | 0.02 | 77 | 1032.4 |
| 20260504180520 | 64 | 3 | 3.0 | 4.0 | 0.01 | 0.02 | 0.02 | 78 | 1035.0 |
| 20260504180021 | 64 | 11 | 2.0 | 4.0 | 0.01 | 0.02 | 0.02 | 77 | 1031.9 |
| 20260504175603 | 64 | 10 | 2.0 | 3.0 | 0.01 | 0.02 | 0.02 | 75 | 1027.8 |
| 20260504175024 | 64 | 7 | 1.0 | 3.0 | 0.01 | 0.02 | 0.02 | 74 | 1026.4 |
| 20260504174524 | 64 | 36 | 1.0 | 3.0 | 0.02 | 0.02 | 0.02 | 76 | 1030.7 |
| 20260504174042 | 64 | 208 | 1.0 | 3.0 | 0.02 | 0.02 | 0.02 | 79 | 1034.5 |
| 20260504173521 | 64 | 139 | 1.0 | 3.0 | 0.02 | 0.02 | 0.02 | 77 | 1031.1 |
| 20260504173022 | 65 | 323 | 1.0 | 3.0 | 0.02 | 0.02 | 0.02 | 75 | 1027.8 |
| 20260504172541 | 65 | 8 | 2.0 | 3.0 | 0.02 | 0.02 | 0.02 | 74 | 1025.8 |
| 20260504172121 | 65 | 264 | 1.0 | 3.0 | 0.02 | 0.02 | 0.02 | 70 | 1023.1 |
| 20260504171523 | 66 | 185 | 1.0 | 2.0 | 0.02 | 0.02 | 0.02 | 69 | 1023.2 |
| 20260504171022 | 66 | 154 | 2.0 | 5.0 | 0.01 | 0.01 | 0.01 | 68 | 1024.2 |
| 20260504170521 | 66 | 169 | 2.0 | 4.0 | 0.01 | 0.01 | 0.01 | 66 | 1026.2 |
| 20260504151024 | 68 | 193 | 1.0 | 3.0 | 0.00 | 0.00 | 0.00 | 60 | 1029.2 |
| 20260504150524 | 69 | 193 | 1.0 | 1.0 | 0.00 | 0.00 | 0.00 | 60 | 1027.5 |
| 20260504141024 | 69 | 172 | 3.0 | 6.0 | 0.00 | 0.00 | 0.00 | 58 | 1021.0 |
| 20260504140542 | 69 | 166 | 2.0 | 6.0 | 0.00 | 0.00 | 0.00 | 59 | 1024.9 |
| 20260504130527 | 64 | 178 | 2.0 | 3.0 | 0.00 | 0.00 | 0.00 | 66 | 1028.2 |
| 20260504110547 | 58 | 223 | 1.0 | 4.0 | 0.00 | 0.00 | 0.00 | 76 | 1030.5 |
| 20260504100529 | 60 | 220 | 1.0 | 2.0 | 0.00 | 0.00 | 0.00 | 71 | 1024.7 |
| 20260504081530 | 61 | 222 | 1.0 | 1.0 | 0.00 | 0.00 | 0.00 | 69 | 1026.4 |
| 20260504081051 | 61 | 223 | 1.0 | 2.0 | 0.00 | 0.00 | 0.00 | 68 | 1026.7 |
| 20260504080531 | 61 | 223 | 1.0 | 4.0 | 0.00 | 0.00 | 0.00 | 68 | 1027.1 |
| 20260504050523 | 66 | 163 | 1.0 | 4.0 | 0.00 | 0.00 | 0.00 | 55 | 1020.5 |
| 20260504050023 | 66 | 189 | 1.0 | 4.0 | 0.00 | 0.00 | 0.00 | 55 | 1019.6 |
| 20260504045603 | 67 | 187 | 1.0 | 3.0 | 0.00 | 0.00 | 0.00 | 55 | 1019.7 |
| 20260504045022 | 67 | 174 | 2.0 | 4.0 | 0.00 | 0.00 | 0.00 | 54 | 1018.8 |
| 20260504044523 | 67 | 167 | 2.0 | 5.0 | 0.00 | 0.00 | 0.00 | 54 | 1017.5 |
| 20260504044020 | 67 | 160 | 3.0 | 6.0 | 0.00 | 0.00 | 0.00 | 53 | 1016.8 |
| 20260504043522 | 67 | 175 | 2.0 | 7.0 | 0.00 | 0.00 | 0.00 | 54 | 1017.5 |
| 20260504043025 | 67 | 167 | 2.0 | 6.0 | 0.00 | 0.00 | 0.00 | 53 | 1016.7 |
| 20260504042523 | 68 | 162 | 2.0 | 5.0 | 0.00 | 0.00 | 0.00 | 53 | 1015.6 |
| 20260504042045 | 68 | 183 | 1.0 | 4.0 | 0.00 | 0.00 | 0.00 | 53 | 1016.1 |
| 20260504041524 | 68 | 170 | 2.0 | 5.0 | 0.00 | 0.00 | 0.00 | 52 | 1015.1 |
| 20260504041022 | 68 | 175 | 2.0 | 5.0 | 0.00 | 0.00 | 0.00 | 51 | 1014.4 |
| 20260504040520 | 69 | 176 | 1.0 | 2.0 | 0.00 | 0.00 | 0.00 | 51 | 1013.5 |
| 20260504040024 | 68 | 164 | 2.0 | 7.0 | 0.00 | 0.00 | 0.00 | 50 | 1013.1 |
| 20260504035602 | 68 | 176 | 1.0 | 4.0 | 0.00 | 0.00 | 0.00 | 51 | 1014.0 |
| 20260504035020 | 68 | 170 | 2.0 | 5.0 | 0.00 | 0.00 | 0.00 | 51 | 1014.2 |
| 20260504034521 | 68 | 176 | 2.0 | 5.0 | 0.00 | 0.00 | 0.00 | 51 | 1014.0 |
| 20260504034025 | 68 | 158 | 2.0 | 5.0 | 0.00 | 0.00 | 0.00 | 51 | 1013.6 |
| 20260504033521 | 67 | 174 | 1.0 | 3.0 | 0.00 | 0.00 | 0.00 | 52 | 1016.0 |
| 20260504033041 | 67 | 166 | 1.0 | 3.0 | 0.00 | 0.00 | 0.00 | 52 | 1016.4 |
| 20260504032522 | 67 | 163 | 1.0 | 4.0 | 0.00 | 0.00 | 0.00 | 52 | 1016.1 |
| 20260504032024 | 67 | 189 | 1.0 | 2.0 | 0.00 | 0.00 | 0.00 | 52 | 1016.3 |
| 20260504031521 | 67 | 173 | 1.0 | 3.0 | 0.00 | 0.00 | 0.00 | 52 | 1015.3 |
| 20260504031023 | 68 | 189 | 1.0 | 3.0 | 0.00 | 0.00 | 0.00 | 52 | 1015.9 |
| 20260504030522 | 68 | 161 | 1.0 | 3.0 | 0.00 | 0.00 | 0.00 | 51 | 1014.0 |
| 20260504030021 | 68 | 166 | 1.0 | 4.0 | 0.00 | 0.00 | 0.00 | 51 | 1013.4 |
| 20260504025522 | 68 | 180 | 1.0 | 3.0 | 0.00 | 0.00 | 0.00 | 50 | 1013.3 |
| 20260504025022 | 68 | 176 | 1.0 | 3.0 | 0.00 | 0.00 | 0.00 | 50 | 1012.8 |
| 20260504024544 | 68 | 162 | 2.0 | 4.0 | 0.00 | 0.00 | 0.00 | 50 | 1012.4 |
| 20260504024022 | 68 | 173 | 2.0 | 4.0 | 0.00 | 0.00 | 0.00 | 50 | 1013.1 |
| 20260504023522 | 68 | 170 | 1.0 | 4.0 | 0.00 | 0.00 | 0.00 | 50 | 1012.7 |
| 20260504023022 | 68 | 159 | 1.0 | 5.0 | 0.00 | 0.00 | 0.00 | 49 | 1012.0 |
| 20260504022522 | 69 | 163 | 1.0 | 3.0 | 0.00 | 0.00 | 0.00 | 49 | 1011.7 |
| 20260504022024 | 69 | 175 | 1.0 | 3.0 | 0.00 | 0.00 | 0.00 | 48 | 1011.6 |
| 20260504021522 | 69 | 179 | 1.0 | 3.0 | 0.00 | 0.00 | 0.00 | 48 | 1011.1 |
| 20260504021025 | 69 | 189 | 1.0 | 3.0 | 0.00 | 0.00 | 0.00 | 48 | 1011.2 |
| 20260504020520 | 69 | 179 | 1.0 | 2.0 | 0.00 | 0.00 | 0.00 | 47 | 1010.8 |
| 20260504020024 | 70 | 197 | 1.0 | 2.0 | 0.00 | 0.00 | 0.00 | 47 | 1011.0 |
| 20260504015545 | 70 | 195 | 1.0 | 2.0 | 0.00 | 0.00 | 0.00 | 47 | 1010.7 |
| 20260504015045 | 70 | 191 | 1.0 | 2.0 | 0.00 | 0.00 | 0.00 | 47 | 1010.4 |
| 20260504014604 | 70 | 184 | 1.0 | 3.0 | 0.00 | 0.00 | 0.00 | 46 | 1010.2 |
| 20260504014023 | 71 | 188 | 1.0 | 3.0 | 0.00 | 0.00 | 0.00 | 46 | 1010.1 |
| 20260504013523 | 71 | 187 | 1.0 | 3.0 | 0.00 | 0.00 | 0.00 | 46 | 1009.9 |
| 20260504013023 | 71 | 193 | 1.0 | 3.0 | 0.00 | 0.00 | 0.00 | 45 | 1009.9 |
| 20260504012543 | 71 | 173 | 1.0 | 3.0 | 0.00 | 0.00 | 0.00 | 45 | 1009.7 |
| 20260504012101 | 72 | 189 | 1.0 | 2.0 | 0.00 | 0.00 | 0.00 | 44 | 1009.6 |
| 20260504011520 | 72 | 182 | 1.0 | 3.0 | 0.00 | 0.00 | 0.00 | 44 | 1009.6 |
| 20260504011020 | 72 | 173 | 1.0 | 3.0 | 0.00 | 0.00 | 0.00 | 44 | 1009.4 |
| 20260504010540 | 72 | 187 | 1.0 | 2.0 | 0.00 | 0.00 | 0.00 | 43 | 1009.3 |
| 20260504010023 | 73 | 167 | 1.0 | 3.0 | 0.00 | 0.00 | 0.00 | 43 | 1009.2 |
| 20260504005524 | 73 | 170 | 1.0 | 3.0 | 0.00 | 0.00 | 0.00 | 43 | 1009.2 |
| 20260504005024 | 73 | 179 | 1.0 | 3.0 | 0.00 | 0.00 | 0.00 | 42 | 1009.0 |
| 20260504004544 | 73 | 189 | 1.0 | 2.0 | 0.00 | 0.00 | 0.00 | 42 | 1009.1 |
| 20260504004023 | 74 | 180 | 1.0 | 3.0 | 0.00 | 0.00 | 0.00 | 41 | 1008.9 |
| 20260504003523 | 74 | 184 | 1.0 | 3.0 | 0.00 | 0.00 | 0.00 | 41 | 1008.9 |
| 20260504003022 | 74 | 166 | 2.0 | 4.0 | 0.00 | 0.00 | 0.00 | 40 | 1008.8 |
| 20260504002542 | 74 | 169 | 1.0 | 3.0 | 0.00 | 0.00 | 0.00 | 40 | 1008.8 |
| 20260504002022 | 74 | 171 | 2.0 | 4.0 | 0.00 | 0.00 | 0.00 | 40 | 1008.8 |
| 20260504001523 | 75 | 176 | 1.0 | 3.0 | 0.00 | 0.00 | 0.00 | 40 | 1008.8 |
| 20260504001021 | 75 | 170 | 2.0 | 5.0 | 0.00 | 0.00 | 0.00 | 39 | 1008.6 |
| 20260504000522 | 75 | 180 | 1.0 | 4.0 | 0.00 | 0.00 | 0.00 | 39 | 1008.7 |
| 20260504000023 | 75 | 157 | 3.0 | 6.0 | 0.00 | 0.00 | 0.00 | 38 | 1008.6 |
| 20260503235523 | 75 | 172 | 1.0 | 4.0 | 0.00 | 0.00 | 0.00 | 38 | 1008.7 |
| 20260503235043 | 76 | 199 | 1.0 | 5.0 | 0.00 | 0.00 | 0.00 | 38 | 1008.7 |
| 20260503234523 | 76 | 165 | 2.0 | 5.0 | 0.00 | 0.00 | 0.00 | 37 | 1008.6 |
| 20260503234044 | 76 | 187 | 2.0 | 4.0 | 0.00 | 0.00 | 0.00 | 37 | 1008.6 |
| 20260503233542 | 76 | 176 | 2.0 | 6.0 | 0.00 | 0.00 | 0.00 | 37 | 1008.6 |
| 20260503233022 | 76 | 185 | 2.0 | 4.0 | 0.00 | 0.00 | 0.00 | 36 | 1008.6 |
| 20260503232522 | 76 | 181 | 1.0 | 4.0 | 0.00 | 0.00 | 0.00 | 36 | 1008.5 |
| 20260503232024 | 77 | 184 | 2.0 | 6.0 | 0.00 | 0.00 | 0.00 | 35 | 1008.5 |
| 20260503231519 | 77 | 165 | 2.0 | 5.0 | 0.00 | 0.00 | 0.00 | 35 | 1008.4 |
| 20260503231022 | 77 | 178 | 2.0 | 6.0 | 0.00 | 0.00 | 0.00 | 35 | 1008.4 |
| 20260503230523 | 77 | 195 | 1.0 | 4.0 | 0.00 | 0.00 | 0.00 | 36 | 1008.7 |
| 20260503230023 | 77 | 179 | 2.0 | 4.0 | 0.00 | 0.00 | 0.00 | 34 | 1008.6 |
| 20260503225523 | 77 | 164 | 2.0 | 7.0 | 0.00 | 0.00 | 0.00 | 35 | 1008.8 |
| 20260503225043 | 77 | 178 | 2.0 | 5.0 | 0.00 | 0.00 | 0.00 | 34 | 1008.6 |
| 20260503224523 | 77 | 194 | 1.0 | 5.0 | 0.00 | 0.00 | 0.00 | 34 | 1008.5 |
| 20260503224024 | 77 | 176 | 1.0 | 3.0 | 0.00 | 0.00 | 0.00 | 34 | 1008.6 |
| 20260503223528 | 77 | 183 | 2.0 | 4.0 | 0.00 | 0.00 | 0.00 | 34 | 1008.5 |
| 20260503223020 | 78 | 181 | 2.0 | 6.0 | 0.00 | 0.00 | 0.00 | 33 | 1008.5 |
| 20260503222520 | 78 | 167 | 2.0 | 8.0 | 0.00 | 0.00 | 0.00 | 33 | 1008.5 |
| 20260503222022 | 78 | 211 | 1.0 | 8.0 | 0.00 | 0.00 | 0.00 | 33 | 1008.5 |
| 20260503221522 | 78 | 173 | 2.0 | 5.0 | 0.00 | 0.00 | 0.00 | 33 | 1008.4 |
| 20260503221024 | 78 | 191 | 2.0 | 6.0 | 0.00 | 0.00 | 0.00 | 33 | 1008.5 |
| 20260503220524 | 78 | 173 | 2.0 | 6.0 | 0.00 | 0.00 | 0.00 | 33 | 1008.6 |
| 20260503220024 | 78 | 177 | 2.0 | 4.0 | 0.00 | 0.00 | 0.00 | 33 | 1008.5 |
| 20260503215521 | 78 | 189 | 1.0 | 5.0 | 0.00 | 0.00 | 0.00 | 33 | 1008.6 |
| 20260503215021 | 77 | 176 | 1.0 | 4.0 | 0.00 | 0.00 | 0.00 | 33 | 1008.6 |
| 20260503214521 | 77 | 165 | 3.0 | 6.0 | 0.00 | 0.00 | 0.00 | 33 | 1008.5 |
| 20260503214024 | 77 | 157 | 3.0 | 8.0 | 0.00 | 0.00 | 0.00 | 33 | 1008.6 |
| 20260503213520 | 77 | 179 | 2.0 | 6.0 | 0.00 | 0.00 | 0.00 | 33 | 1008.6 |
| 20260503213022 | 77 | 167 | 3.0 | 8.0 | 0.00 | 0.00 | 0.00 | 33 | 1008.5 |
| 20260503212521 | 77 | 182 | 2.0 | 5.0 | 0.00 | 0.00 | 0.00 | 34 | 1008.6 |
| 20260503212043 | 77 | 181 | 2.0 | 5.0 | 0.00 | 0.00 | 0.00 | 34 | 1008.9 |
| 20260503211542 | 76 | 182 | 3.0 | 6.0 | 0.00 | 0.00 | 0.00 | 34 | 1008.7 |
| 20260503211023 | 76 | 182 | 2.0 | 6.0 | 0.00 | 0.00 | 0.00 | 35 | 1008.9 |
| 20260503210522 | 76 | 170 | 3.0 | 9.0 | 0.00 | 0.00 | 0.00 | 34 | 1008.9 |
| 20260503210021 | 76 | 165 | 3.0 | 6.0 | 0.00 | 0.00 | 0.00 | 34 | 1008.9 |